AO-07 1 07530U 74089B 19346.39928854 -.00000047 00000-0 -13954-4 0 9993 2 07530 101.7721 312.4111 0012373 7.5483 110.4225 12.53641184 62662 UO-11 1 14781U 84021B 19345.79045131 .00000069 00000-0 14599-4 0 9995 2 14781 97.5993 2.0664 0009969 99.9337 260.3004 14.83126876924866 LO-19 1 20442U 90005G 19345.77236569 -.00000011 00000-0 12372-4 0 9995 2 20442 098.6693 287.6282 0011718 356.1742 003.9350 14.32940252561538 HUBBLE 1 20580U 90037B 19345.70009060 .00000347 00000-0 10145-4 0 9997 2 20580 028.4685 128.0198 0002567 217.2493 162.4804 15.09310375427425 MET-2/21 1 22782U 93055A 19345.67550840 -.00000012 00000-0 -24522-4 0 9994 2 22782 082.5493 023.4103 0023229 047.2643 069.8910 13.83822220326938 AO-27 1 22825U 93061C 19346.23498417 -.00000014 00000-0 12647-4 0 9999 2 22825 98.9164 339.0207 0008022 198.4714 161.6177 14.30073240367186 IO-26 1 22826U 93061D 19345.98563548 -.00000001 00000-0 17558-4 0 9991 2 22826 98.9103 338.7350 0008732 187.8294 172.2753 14.30407802367350 FO-29 1 24278U 96046B 19346.20312451 -.00000056 00000-0 -23126-4 0 9990 2 24278 98.5632 115.9024 0350933 142.3645 220.2617 13.53095147151676 NOAA-15 1 25338U 98030A 19346.59408343 .00000019 00000-0 26599-4 0 9995 2 25338 98.7343 7.4348 0011452 89.4227 270.8265 14.25943081122460 GO-32 1 25397U 98043D 19345.81325498 -.00000027 00000-0 75089-5 0 9996 2 25397 098.7080 283.9572 0000459 189.6352 170.4817 14.23675809112713 ISS 1 25544U 98067A 19346.72604919 .00000157 00000-0 10764-4 0 9996 2 25544 51.6424 196.1778 0007431 27.5678 90.4200 15.50119767202958 NO-44 1 26931U 01043C 19345.82354513 -.00000054 00000-0 11047-4 0 9999 2 26931 67.0516 269.1682 0007167 264.3679 95.6605 14.30561244950162 SO-50 1 27607U 02058C 19345.82662478 -.00000029 00000-0 16696-4 0 9996 2 27607 064.5548 231.0804 0070010 221.8124 137.7618 14.75594458912896 CO-55 1 27844U 03031E 19345.74803592 .00000048 00000-0 41443-4 0 9994 2 27844 098.6835 351.3272 0008964 238.6432 121.3869 14.22210224853279 CO-57 1 27848U 03031J 19345.79049782 .00000026 00000-0 31748-4 0 9999 2 27848 98.6909 351.9028 0008748 251.6188 108.4038 14.21801076853165 RS-22 1 27939U 03042A 19346.38733071 .00000037 00000-0 15294-4 0 9999 2 27939 98.0643 119.0341 0012169 223.9663 136.0597 14.66822974866449 NOAA-18 1 28654U 05018A 19346.58961968 .00000088 00000-0 72278-4 0 9990 2 28654 99.0731 36.0053 0014779 43.4077 316.8256 14.12473713750495 CO-58 1 28895U 05043F 19346.35919838 .00000083 00000-0 24692-4 0 9991 2 28895 97.9833 123.3126 0017491 150.6663 209.5526 14.63719406753320 Falconsat-3 1 30776U 07006E 19345.57864559 .00002195 00000-0 60800-4 0 9992 2 30776 35.4357 47.6000 0003325 265.8670 94.1677 15.36907396707755 CO-65 1 32785U 08021C 19346.16512235 .00000174 00000-0 24337-4 0 9999 2 32785 97.5589 337.6482 0014071 42.8070 317.4240 14.88387400629930 AAUSAT2 1 32788U 08021F 19345.76989019 .00000749 00000-0 73654-4 0 9999 2 32788 097.4924 353.6819 0010956 336.1235 023.9477 14.94882942631120 DO-64 1 32789U 08021G 19346.09256771 .00001030 00000-0 72134-4 0 9995 2 32789 97.4436 30.2594 0010933 237.3421 122.6753 15.07314524633533 CO-66 1 32791U 08021J 19345.75082462 .00000387 00000-0 44561-4 0 9991 2 32791 97.5322 343.3642 0013736 17.7426 342.4270 14.90929432630345 RS-30 1 32953U 08025A 19346.22618299 .00000037 00000-0 19437-3 0 9996 2 32953 82.5059 34.9756 0020392 104.8087 255.5249 12.43092875524241 PRISM 1 33493U 09002B 19346.08796063 .00001066 00000-0 98503-4 0 9997 2 33493 98.1297 273.7782 0014138 324.2640 35.7633 14.96836812591532 NOAA-19 1 33591U 09005A 19346.58109454 .00000026 00000-0 39502-4 0 9995 2 33591 99.1910 342.0859 0013127 241.0915 118.8939 14.12387131558872 TISAT-1 1 36799U 10035E 19346.02892707 .00000134 00000-0 19633-4 0 9995 2 36799 98.1748 144.2921 0011412 223.3102 136.7219 14.91223239511044 JUGNU 1 37839U 11058B 19346.33677624 .00000304 00000-0 20392-4 0 9993 2 37839 19.9625 343.5699 0019158 114.2690 14.2951 14.12666614422265 SRMSAT 1 37841U 11058D 19345.58283078 .00000303 00000-0 21664-4 0 9990 2 37841 019.9730 048.5532 0011832 329.8561 180.3143 14.10645227421469 AO-71 1 37854U 11061E 19345.81544657 .00000733 00000-0 45211-4 0 9998 2 37854 101.7124 334.6886 0159462 262.5992 095.7076 15.06858310443063 HRBE 1 37855U 11061F 19345.83744814 .00001254 00000-0 70068-4 0 9995 2 37855 101.7252 331.9650 0172189 274.5479 083.6082 15.05870621442812 ALMASAT-1 1 38078U 12006B 19346.44635247 .00053290 50556-5 19762-3 0 9996 2 38078 69.4242 115.8382 0112225 342.6969 77.2510 15.78830585425222 HORYU-2 1 38340U 12025D 19345.79510008 .00000155 00000-0 30644-4 0 9992 2 38340 98.3085 29.4759 0010248 284.0828 75.9241 14.75785744407131 RS-40 1 38735U 12041C 19345.71843999 .00000032 00000-0 16278-3 0 9998 2 38735 082.4735 118.3489 0016751 210.1645 149.8475 12.42580143334413 BEESAT-3 1 39135U 13015F 19345.82181445 .00000559 00000-0 36988-4 0 9993 2 39135 64.8651 190.4524 0042404 277.6226 82.0085 15.17782224366977 BEESAT-2 1 39136U 13015G 19345.99208986 .00000761 00000-0 47756-4 0 9992 2 39136 64.8689 194.2501 0030661 283.4849 76.2861 15.17204287366913 ZACUBE-1 1 39417U 13066B 19346.02795593 .00000166 00000-0 27113-4 0 9994 2 39417 97.5610 349.6093 0059052 174.3954 185.7934 14.81190597327141 TRITON-1 1 39427U 13066M 19346.14378194 .00000139 00000-0 30457-4 0 9997 2 39427 97.6998 312.8408 0112912 321.2058 38.1080 14.67918021324220 GOMX-1 1 39430U 13066Q 19346.39109416 .00000221 00000-0 48651-4 0 9994 2 39430 97.7696 291.5085 0152321 57.3300 304.2485 14.59322062322374 LO-74 1 39440U 13066AA 19346.22729922 .00000136 00000-0 25973-4 0 9994 2 39440 97.6138 334.3509 0079019 230.8876 128.5291 14.75929062326018 AO-73 1 39444U 13066AE 19346.06541449 .00000229 00000-0 34400-4 0 9994 2 39444 97.5574 351.7492 0058361 167.3799 192.8892 14.82025247326059 SPROUT 1 39770U 14029E 19346.28640641 .00000573 00000-0 69276-4 0 9995 2 39770 97.8916 88.5244 0008041 221.1193 138.9415 14.87536187301084 DUCHIFAT-1 1 40021U 14033M 19345.61165297 .00000468 00000-0 53476-4 0 9994 2 40021 97.9319 270.8336 0012534 184.2487 175.8626 14.90758976297756 NANOSATCBR1 1 40024U 14033Q 19346.33655569 .00000352 00000-0 42419-4 0 9990 2 40024 97.9194 268.5126 0011844 185.5021 174.6068 14.89952887297743 EO-79 1 40025U 14033R 19346.03603368 .00000180 00000-0 25147-4 0 9996 2 40025 97.9096 265.4382 0011927 193.1360 166.9547 14.89035678297564 DTUSAT-2 1 40030U 14033W 19345.67746641 .00000188 00000-0 26216-4 0 9999 2 40030 97.8996 262.9295 0011468 189.8307 170.2687 14.88620315297432 EO-80 1 40032U 14033Y 19346.02574216 .00000185 00000-0 25922-4 0 9998 2 40032 97.9004 263.2781 0011432 189.3345 170.7661 14.88566225297477 ANTELSAT 1 40034U 14033AA 19346.18730354 .00000171 00000-0 32794-4 0 9994 2 40034 97.7349 205.6287 0057377 246.4483 113.0692 14.74176206294670 VELOX-1 1 40057U 14034E 19346.40797684 .00000248 00000-0 42174-4 0 9992 2 40057 98.2557 113.5451 0011419 33.9728 326.2216 14.77763776293867 DAURIA DX 1 1 40071U 14037C 19346.39870128 .00000075 00000-0 17134-4 0 9990 2 40071 98.4439 149.5445 0009009 26.6103 333.5577 14.81316192293417 UKUBE-1 1 40074U 14037F 19346.40965362 .00000293 00000-0 42332-4 0 9990 2 40074 98.4489 158.5997 0005240 20.7370 339.4056 14.84153548293864 HODOYOSHI-1 1 40299U 14070B 19346.39423976 .00000504 00000-0 23947-4 0 9990 2 40299 97.3372 62.3698 0013978 134.6886 287.9392 15.23546693283170 CHUBUSAT-1 1 40300U 14070C 19346.48026954 .00000538 00000-0 26251-4 0 9996 2 40300 97.3125 56.0461 0020416 150.1425 219.4469 15.22283658282918 QSAT-EOS 1 40301U 14070D 19346.47021043 .00001369 00000-0 54878-4 0 9999 2 40301 97.3142 60.0766 0026866 131.5991 293.5494 15.26396607283259 FIREBIRD FU3 1 40377U 15003B 19345.75810172 .00001406 00000-0 58624-4 0 9993 2 40377 099.1169 002.2050 0124844 223.4235 135.7109 15.19390213268647 FIREBIRD FU4 1 40378U 15003C 19346.27102126 .00001405 00000-0 58534-4 0 9994 2 40378 99.1172 2.9105 0125074 221.5900 137.5765 15.19404685268731 GRIFEX 1 40379U 15003D 19346.25989902 .00001064 00000-0 49235-4 0 9997 2 40379 99.1211 355.8883 0133206 243.2566 115.4980 15.15924915268333 NO-84 1 40654U 15025D 19346.52093294 .00006398 00000 0 85405-4 0 7998 2 40654 54.9875 84.4695 0130885 62.2848 299.1381 15.50193421139849 DEORBITSAIL 1 40719U 15032E 19345.75259268 .00000355 00000-0 57593-4 0 9994 2 40719 97.8891 233.8016 0017634 96.4211 263.9007 14.76862751238245 NUDT-PHONESAT 1 40900U 15049B 19346.45065506 .00001707 00000-0 74684-4 0 9994 2 40900 97.4354 354.0968 0011139 287.2887 212.0199 15.23380754234561 XW-2A 1 40903U 15049E 19346.40757758 .00001647 00000-0 40050-4 0 9992 2 40903 97.3166 29.9983 0012175 219.9746 236.7834 15.42411117237488 XW-2C 1 40906U 15049H 19346.40079042 .00000701 00000-0 40099-4 0 9991 2 40906 97.4721 345.6169 0013589 311.1583 186.4036 15.15857441233763 XW-2D 1 40907U 15049J 19346.41596756 .00000574 00000-0 33262-4 0 9991 2 40907 97.4708 345.3181 0012957 308.9398 157.1565 15.16061206233787 LILACSAT-2 1 40908U 15049K 19346.41660757 .00000430 00000-0 27322-4 0 9996 2 40908 97.4843 343.9304 0014888 316.7708 182.0161 15.13911807233547 XW-2E 1 40909U 15049L 19346.38293337 .00000767 00000-0 40922-4 0 9993 2 40909 97.4614 348.4287 0012146 301.2503 166.8238 15.18075027233995 XW-2F 1 40910U 15049M 19346.47893265 .00001001 00000-0 53119-4 0 9995 2 40910 97.4648 347.6566 0013338 298.9641 214.0151 15.17588734233829 XW-2B 1 40911U 15049N 19346.46125472 .00000687 00000-0 39212-4 0 9990 2 40911 97.4718 346.0405 0012832 309.4510 180.5365 15.15991162233683 DCBB 1 40912U 15049P 19346.43435882 .00000894 00000-0 44745-4 0 9994 2 40912 97.4494 351.5313 0013274 276.9908 221.4970 15.19935803234158 TW-1C 1 40926U 15051B 19346.40185450 .00012362 00000-0 15644-3 0 9990 2 40926 97.1137 32.5373 0008867 77.8466 338.7020 15.59595215237665 TW-1A 1 40928U 15051D 19346.35005060 .00002150 00000-0 52879-4 0 9990 2 40928 97.1294 13.6707 0011738 143.2514 273.4460 15.41649161236387 IO-86 1 40931U 15052B 19344.08263282 .00000639 00000-0 -55991-7 0 9997 2 40931 5.9991 252.9666 0012722 102.2336 257.9387 14.76621579227076 LQSat 1 40958U 15057A 19346.17058356 .00000018 00000-0 10386-4 0 9993 2 40958 97.8797 50.4115 0018952 38.5912 321.6647 14.73099836224786 AO-85 1 40967U 15058D 19346.29760548 .00000012 00000 0 20517-4 0 8955 2 40967 64.7766 342.1061 0179200 143.9055 217.4306 14.76040903133809 ATHENOXAT-1 1 41168U 15077C 19346.36270509 .00001676 00000-0 52699-4 0 9990 2 41168 14.9893 1.0304 0011498 31.0244 329.0755 15.13973782220798 ChubuSat-2 1 41338U 16012B 19346.01356058 .00000257 00000-0 13246-4 0 9994 2 41338 31.0029 104.1701 0013715 49.0784 311.1037 15.00218526209411 ChubuSat-3 1 41339U 16012C 19346.36186019 .00000247 00000-0 12425-4 0 9998 2 41339 31.0107 99.8254 0013596 59.2358 300.9618 15.00388929209460 Horyu-4 1 41340U 16012D 19346.42523055 .00000382 00000-0 22257-4 0 9996 2 41340 31.0050 89.0987 0013813 81.9844 278.2358 15.01374452209596 OUFTI-1 1 41458U 16025C 19345.79266352 .00001121 00000-0 59995-4 0 9994 2 41458 98.1007 81.6108 0166416 124.5959 237.1093 15.06299268199071 e-st@r-II 1 41459U 16025D 19346.38421670 .00001037 00000-0 56145-4 0 9997 2 41459 98.1006 81.7883 0168118 124.2523 237.4766 15.05904779199133 AAUSAT4 1 41460U 16025E 19346.26333427 .00002188 00000-0 11094-3 0 9999 2 41460 98.0973 83.3754 0157294 115.6874 246.0700 15.07984241199271 LO-87 1 41557U 16033B 19346.40710468 .00001010 00000-0 40105-4 0 9994 2 41557 97.4128 72.8621 0014618 39.1463 321.0831 15.27591873197066 NuSat2 1 41558U 16033C 19346.41688586 .00001150 00000-0 42757-4 0 9991 2 41558 97.4164 74.5031 0013633 38.6332 321.5881 15.29524086197149 Lapan A3 1 41603U 16040E 19346.43411737 .00000049 00000-0 54311-5 0 9990 2 41603 97.3388 40.5541 0014551 135.5872 320.1399 15.19774316192586 Swayam 1 41607U 16040J 19346.15091049 .00001199 00000-0 52694-4 0 9991 2 41607 97.3448 44.7355 0014669 126.7954 233.4631 15.23727175192748 Pratham 1 41783U 16059A 19345.71164597 .00000066 00000-0 21945-4 0 9993 2 41783 98.0456 41.1937 0033455 188.2200 171.8459 14.63025712171288 AlSat 1N 1 41789U 16059G 19346.43819319 .00000056 00000-0 19511-4 0 9993 2 41789 98.0484 44.2900 0028535 174.1742 185.9804 14.64282361171519 ScatSat 1 41790U 16059H 19346.40446366 .00000003 00000-0 11649-4 0 9996 2 41790 98.1881 27.0242 0006400 129.5054 230.6708 14.50896987169954 TY-1 1 41844U 16066D 19346.41448760 .00000726 00000-0 32374-4 0 9995 2 41844 97.4045 351.7240 0013514 289.4103 198.8812 15.24540882171617 Pegasus-1 1 41846U 16066F 19345.54962014 .00000289 00000-0 53165-4 0 9998 2 41846 098.6900 028.3606 0368222 075.5480 288.6263 14.37666551161821 CAS-2T 1 41847U 16066G 19346.41481276 .00000071 00000-0 20416-4 0 9994 2 41847 98.6832 29.7525 0366804 69.1082 294.8964 14.38026570162394 EO-88 1 42017U 17008BX 19346.18648291 .00001253 00000-0 51582-4 0 9998 2 42017 97.3845 51.3084 0004598 265.4405 94.6308 15.25968413156832 nSIGHT1 1 42726U 98067MF 19345.57196864 .00044183 00000-0 22336-3 0 9998 2 42726 51.6311 123.8979 0003069 162.8981 197.2125 15.81110006145541 CAS-4B 1 42759U 17034B 19346.05875381 .00000178 00000-0 24362-4 0 9999 2 42759 43.0207 342.0543 0012830 283.9723 131.1087 15.09700452137492 CAS-4A 1 42761U 17034D 19346.23425926 .00000017 00000-0 14533-4 0 9999 2 42761 43.0208 340.5114 0013237 286.2248 253.7829 15.09777183137516 UCLSat 1 42765U 17036A 19346.15630214 .00001005 00000-0 45524-4 0 9996 2 42765 97.3291 40.1994 0010574 337.0959 22.9805 15.23097571137329 NIUSat 1 42766U 17036B 19345.65897510 .00000764 00000-0 37028-4 0 9996 2 42766 097.3287 037.6904 0014563 328.4827 031.5536 15.21387913136985 LituanicaSAT 2 1 42768U 17036D 19345.78912657 .00001633 00000-0 71508-4 0 9999 2 42768 97.3336 39.5730 0013804 325.8922 34.1427 15.23368430137113 Aalto 1 1 42775U 17036L 19345.66140577 .00000622 00000-0 30565-4 0 9993 2 42775 97.3272 38.0404 0012927 328.8215 31.2253 15.21568379136964 URSA MAIOR 1 42776U 17036M 19346.26336778 .00000698 00000-0 33802-4 0 9991 2 42776 97.3281 38.8351 0012689 326.4655 33.5776 15.21723371137063 Max Valier Sat 1 42778U 17036P 19345.77547075 .00000728 00000-0 34576-4 0 9995 2 42778 97.3329 39.3640 0011334 332.7801 27.2840 15.22294410137020 Pegasus 1 42784U 17036V 19346.14500725 .00000899 00000-0 41362-4 0 9995 2 42784 97.3296 39.9492 0011159 337.5378 22.5369 15.22820776137112 NUDATSat 1 42787U 17036Y 19345.89220190 .00001535 00000-0 66297-4 0 9996 2 42787 097.3332 040.6971 0011474 336.7184 023.3525 15.23947047136971 SUCHAI 1 1 42788U 17036Z 19345.70695505 .00001081 00000-0 48443-4 0 9992 2 42788 97.3303 39.9484 0010708 338.2004 21.8776 15.23294683137149 SKCUBE 1 42789U 17036AA 19345.66982906 .00000998 00000-0 45115-4 0 9991 2 42789 097.3298 039.8169 0010600 338.6881 021.3913 15.23169213137058 VZLUSAT 1 1 42790U 17036AB 19345.68281320 .00001340 00000-0 58297-4 0 9994 2 42790 097.3318 040.4896 0010087 337.1818 022.8970 15.23930172137094 VENTA 1 1 42791U 17036AC 19345.70862426 .00000955 00000-0 43286-4 0 9993 2 42791 097.3297 039.9042 0010283 339.3051 020.7768 15.23172062137052 Robusta 1B 1 42792U 17036AD 19345.71207365 .00000998 00000-0 44878-4 0 9995 2 42792 97.3301 40.0530 0010194 339.4461 20.6364 15.23347857137081 D-SAT 1 42794U 17036AF 19346.09141053 .00000059 00000-0 10809-4 0 9995 2 42794 97.5180 22.8235 0124823 273.5761 85.1190 14.91183630134627 TechnoSat 1 42829U 17042E 19346.31435560 .00000182 00000-0 23683-4 0 9996 2 42829 97.5426 231.6209 0013916 186.0453 174.0600 14.91033286131257 QIKCOM-1 1 42983U 98067NF 19346.13172380 .00002938 00000-0 41857-4 0 9995 2 42983 51.6376 173.7290 0004394 74.5122 285.6356 15.60038646120878 AO-91 1 43017U 17073E 19346.01764095 .00000637 00000-0 55629-4 0 9995 2 43017 97.7252 260.4885 0256545 304.4166 53.3032 14.78739176111319 EcAMSat 1 43019U 98067NG 19345.78653041 .00005971 00000-0 69376-4 0 9990 2 43019 51.6386 166.9844 0004386 59.7606 300.3823 15.63334730203256 PICSAT 1 43132U 18004X 19346.15891546 .00001031 00000-0 45559-4 0 9995 2 43132 97.4705 53.4806 0009573 5.3620 354.7717 15.23956283106378 AO-92 1 43137U 18004AC 19346.16732808 .00000819 00000-0 37008-4 0 9999 2 43137 97.4694 53.4110 0009249 7.7120 352.4258 15.23763524106367 TianYi 2 1 43155U 18008A 19346.46000207 .00000990 00000-0 62205-4 0 9994 2 43155 97.4713 55.1392 0019315 77.7435 339.1323 15.11374157104529 Zhou Enlai 1 43156U 18008B 19346.43918561 .00000160 00000-0 13373-4 0 9994 2 43156 97.4752 54.9883 0016440 75.9078 20.2479 15.10884841104484 TianYi 6 1 43158U 18008D 19346.32879627 .00001003 00000-0 64649-4 0 9992 2 43158 97.4711 54.1667 0015245 74.9840 349.6174 15.10454841104428 S-Net G 1 43186U 18014G 19346.05885962 -.00000363 00000-0 -26668-4 0 9998 2 43186 97.7021 251.8448 0011890 130.2704 229.9559 14.96721657101515 S-Net H 1 43187U 18014H 19345.79125836 -.00000380 00000-0 -28211-4 0 9991 2 43187 97.7019 251.5650 0011874 130.9938 229.2313 14.96721827101478 S-Net J 1 43188U 18014J 19346.19221876 -.00000362 00000-0 -26582-4 0 9997 2 43188 97.7022 251.9825 0011879 129.9002 230.3266 14.96721456101531 S-Net K 1 43189U 18014K 19345.99201811 -.00001850 00000-0 -15679-3 0 9999 2 43189 97.7017 251.7585 0011888 129.7596 230.4674 14.96721746100055 FMN 1 1 43192U 18015A 19346.43513295 .00001568 00000-0 65758-4 0 9994 2 43192 97.4207 112.2595 0016864 36.9745 48.3808 15.24874944103243 Shaonian Xing 1 43199U 18015H 19346.39386270 .00001189 00000-0 50031-4 0 9994 2 43199 97.3992 110.9585 0018249 46.3263 35.6365 15.25232214103294 1KUNS-PF 1 43466U 98067NP 19345.70375376 .00035226 00000-0 23992-3 0 9999 2 43466 51.6314 156.4688 0001589 181.1399 178.9597 15.74524123 90568 UBAKUSAT 1 43467U 98067NQ 19346.13159160 .00013695 00000-0 12953-3 0 9990 2 43467 51.6336 164.6317 0001215 58.5157 301.5958 15.67310721 90506 Irazu 1 43468U 98067NR 19345.73568808 .00082224 00000-0 37420-3 0 9999 2 43468 51.6330 146.8286 0002383 225.5587 134.5221 15.83118601190686 EnduroSat One 1 43551U 98067NZ 19346.21099550 .00019980 00000-0 17598-3 0 9992 2 43551 51.6332 165.9090 0005140 109.9171 250.2380 15.68728088 80728 EQUISat 1 43552U 98067PA 19345.81131102 .00015469 00000-0 15212-3 0 9997 2 43552 51.6354 171.5491 0005717 101.8391 258.3246 15.66205259 80577 UiTMSat 1 1 43589U 98067PD 19346.21998298 .00017071 00000-0 16217-3 0 9996 2 43589 51.6322 169.6729 0005221 114.1709 245.9833 15.66983748 76377 Maya 1 1 43590U 98067PE 19345.89445241 .00018234 00000-0 17284-3 0 9993 2 43590 51.6325 171.2561 0005312 113.1812 246.9744 15.66983397 76259 Bhutan 1 1 43591U 98067PF 19345.55943465 .00017531 00000-0 16603-3 0 9991 2 43591 051.6334 172.8101 0005472 112.5806 247.5770 15.67036725076206 SiriusSat 1 1 43595U 98067PG 19345.78072779 .00015401 00000-0 15372-3 0 9997 2 43595 51.6325 174.2520 0002914 82.6646 277.4681 15.65843700 75386 SiriusSat 2 1 43596U 98067PH 19346.08484373 .00016066 00000-0 16106-3 0 9993 2 43596 51.6336 173.3385 0003308 80.3233 279.8136 15.65694432 75425 Tanusha-3 1 43597U 98067PJ 19345.77092055 .00024679 00000-0 21379-3 0 9998 2 43597 051.6314 170.3860 0002999 106.1241 254.0086 15.68996224075435 SurfSat 1 43614U 18070B 19346.26350078 .00002296 00000-0 60882-4 0 9995 2 43614 93.0391 76.6975 0015006 354.9462 5.1638 15.38314185 69546 CP-7 DAVE 1 43615U 18070C 19346.27990191 .00002174 00000-0 57833-4 0 9990 2 43615 93.0395 76.7023 0015125 354.1276 5.9798 15.38208449 69543 ELFIN-B 1 43616U 18070D 19345.80996101 .00003305 00000-0 85115-4 0 9997 2 43616 93.0354 76.4146 0015929 358.5923 1.5284 15.39156874 69492 ELFIN-A 1 43617U 18070E 19345.79619603 .00003410 00000-0 87548-4 0 9994 2 43617 093.0410 076.7632 0015021 355.6199 004.4921 15.39266911069499 STARS-Me Mother 1 43640U 98067PQ 19345.93667810 .00008481 00000-0 10337-3 0 9997 2 43640 51.6344 181.3516 0004808 50.8400 309.3021 15.61416965 67234 CubeBel 1 1 43666U 18083E 19346.38113735 .00000992 00000-0 52265-4 0 9993 2 43666 97.5068 9.5556 0013709 298.2284 159.7694 15.17885653 62083 Changshagaoxin 1 43669U 18083H 19346.37535045 .00000703 00000-0 38983-4 0 9998 2 43669 97.4934 8.3172 0009392 290.3125 69.7098 15.17014216 62018 Ten-Koh 1 43677U 18084G 19346.35256014 .00000086 00000-0 14667-4 0 9999 2 43677 97.8674 99.1105 0017254 61.9144 298.3815 14.90225516 60927 PO-101 1 43678U 18084H 19346.44105178 .00000277 00000-0 33266-4 0 9992 2 43678 97.8672 100.1078 0011424 79.9529 280.2962 14.91594540 60994 IRVINE 01 1 43693U 18088D 19346.11797031 .00001986 00000-0 84893-4 0 9992 2 43693 85.0364 201.5731 0016038 264.5572 95.3840 15.22053712 60194 QO-100 1 43700U 18090A 19346.26991494 .00000164 00000-0 00000 0 0 9999 2 43700 0.0174 15.6630 0001941 272.7286 275.2661 1.00272068 4063 Reaktor Hello World 1 43743U 18096AA 19346.46878358 .00000973 00000-0 39383-4 0 9996 2 43743 97.4441 56.1336 0019744 74.2748 48.8261 15.26976556 57703 MinXSS-2 1 43758U 18099A 19346.19651962 .00000275 00000-0 29929-4 0 9995 2 43758 97.7287 56.0093 0017031 98.4769 261.8383 14.95527456 55815 AO-95 1 43770U 18099N 19346.15545329 .00000554 00000-0 56015-4 0 9990 2 43770 97.7289 55.6100 0016127 104.6423 255.6587 14.94870712 55785 RANGE-B 1 43772U 18099Q 19346.19691715 .00000343 00000-0 36514-4 0 9995 2 43772 97.7346 55.9602 0015610 93.3490 266.9517 14.95013731 55784 RANGE-A 1 43773U 18099R 19346.14535125 .00000580 00000-0 58339-4 0 9995 2 43773 97.7234 55.3770 0015132 93.2891 267.0061 14.94878698 55779 MOVE-II 1 43780U 18099Y 19345.75067402 .00000870 00000-0 84219-4 0 9995 2 43780 97.7285 55.3142 0015126 104.3372 255.9529 14.95219259 55719 SNUSat 2 1 43782U 18099AA 19346.15097791 .00000643 00000-0 63719-4 0 9996 2 43782 97.7285 55.7491 0014357 93.0486 267.2377 14.95146112 55788 SnugLite 1 43784U 18099AC 19345.79642883 .00000239 00000-0 26883-4 0 9997 2 43784 097.7247 055.2804 0016560 101.4436 258.8646 14.95233119055743 ITASat 1 1 43786U 18099AE 19345.79461002 .00000115 00000-0 15668-4 0 9993 2 43786 97.7302 55.5377 0016644 100.4358 259.8740 14.95224349 55741 EAGLET 1 1 43790U 18099AJ 19345.76748076 .00000129 00000-0 16818-4 0 9997 2 43790 97.7295 55.6820 0015027 104.1982 256.0909 14.95603153 55446 ESEO 1 43792U 18099AL 19346.16921049 -.00000095 00000-0 -33877-5 0 9996 2 43792 97.7271 55.9843 0014843 100.0724 260.2172 14.95553675 55569 CSIM 1 43793U 18099AM 19345.79314082 .00000310 00000-0 32882-4 0 9990 2 43793 97.7245 55.5169 0014373 100.6291 259.6549 14.95859302 55488 Astrocast 0.1 1 43798U 18099AS 19346.18055031 -.00000324 00000-0 -23788-4 0 9997 2 43798 97.7283 56.1545 0013869 85.0860 275.1944 14.95791376 55801 JO-97 1 43803U 18099AX 19346.43206616 .00000283 00000-0 30758-4 0 9996 2 43803 97.7263 56.0345 0016740 98.6922 261.6196 14.95380307 55833 Suomi 100 1 43804U 18099AY 19345.76271417 .00000341 00000-0 35999-4 0 9990 2 43804 97.7263 55.3697 0016815 100.8660 259.4454 14.95374455 55743 Al Farabi 2 1 43805U 18099AZ 19346.35224074 .00000781 00000-0 75619-4 0 9995 2 43805 97.7266 55.9899 0016883 99.5258 260.7871 14.95459663 55832 PWSat 2 1 43814U 18099BJ 19346.45818404 .00016327 00000-0 11603-2 0 9996 2 43814 97.7792 59.7126 0010676 127.1630 233.0578 15.04722783 55381 CHOMPTT 1 43855U 18104G 19345.90822879 .00000964 00000-0 39456-4 0 9996 2 43855 85.0356 299.9107 0019378 32.6325 327.6078 15.22646138 54831 ISAT 1 43879U 18111D 19346.36843425 .00000670 00000-0 64646-4 0 9994 2 43879 97.7106 251.7173 0013903 147.2488 212.9598 14.96106947 50366 UWE-4 1 43880U 18111E 19345.70985076 .00000977 00000-0 91352-4 0 9996 2 43880 97.7102 251.2410 0012682 151.2211 208.9900 14.96350352 50278 Sparrow 1 43881U 18111F 19345.49841820 .00000831 00000-0 78372-4 0 9997 2 43881 97.7121 251.0776 0013179 149.1818 211.0180 14.96393467 50239 Lume 1 1 43908U 18111AJ 19345.77745105 .00000870 00000-0 37805-4 0 9996 2 43908 097.2789 246.1163 0023206 089.7422 270.6475 15.24654585053279 FO-98 1 43933U 19003B 19346.44488271 .00000538 00000-0 26536-4 0 9998 2 43933 97.2601 38.0979 0017867 178.5039 306.8607 15.21851949 49937 FO-99 1 43937U 19003F 19346.40933078 .00001039 00000-0 45500-4 0 9997 2 43937 97.2558 38.8005 0024789 165.1465 251.6580 15.23942586 49999 Delphini 1 1 44030U 98067PW 19345.98183244 .00011703 00000-0 14659-3 0 9992 2 44030 51.6344 186.9139 0004973 98.3514 261.8043 15.60254401 49034 MYSat 1 1 44045U 18092F 19345.99118086 .00001525 00000-0 54173-4 0 9998 2 44045 51.6423 236.6999 0011496 6.5383 353.5726 15.35718082 46326 AstroCast 0.2 1 44083U 19018F 19346.13253942 .00000560 00000-0 27901-4 0 9994 2 44083 97.4475 44.5176 0015490 109.4749 250.8162 15.21552604 38744 AISTechSat 3 1 44103U 19018AB 19346.46981291 .00000655 00000-0 30908-4 0 9994 2 44103 97.4363 44.9142 0014939 123.4837 1.9951 15.22873240 38824 AISat 1 1 44104U 19018AC 19346.18621166 .00000809 00000-0 28520-4 0 9994 2 44104 97.4890 49.4559 0059249 159.6218 200.7407 15.30740371 39002 Raavana-1 1 44329U 98067QE 19345.76953196 .00006411 00000-0 10289-3 0 9995 2 44329 051.6384 197.5378 0006531 026.5626 333.5698 15.54426325027624 Uguisu 1 44330U 98067QF 19345.77427076 .00006401 00000-0 10293-3 0 9995 2 44330 051.6385 197.5683 0006502 025.4188 334.7121 15.54375674027607 NepaliSat-1 1 44331U 98067QG 19345.82989114 .00006418 00000-0 10286-3 0 9998 2 44331 051.6386 197.1916 0006566 028.2720 331.8626 15.54460141027621 Prox-1 1 44339U 19036A 19346.00167751 .00000920 00000-0 16960-3 0 9998 2 44339 24.0011 217.4525 0011104 253.2014 106.7353 14.52768941 24696 OBJECT H 1 44346U 19036H 19346.23157659 .00468411 00000-0 59651-2 0 9993 2 44346 28.4957 173.1825 0311956 106.5213 257.0272 15.16738137 25518 OBJECT J 1 44347U 19036J 19345.60260618 .00043487 00000-0 64696-3 0 9992 2 44347 028.5178 174.0208 0351215 105.7074 258.2540 15.06130582025451 OBJECT K 1 44348U 19036K 19345.86711469 .00011433 00000-0 17518-3 0 9993 2 44348 28.5125 176.9965 0381270 101.0444 263.3304 14.99046160 25442 Armadillo 1 44352U 19036P 19345.86539600 .00017053 00000-0 26539-3 0 9990 2 44352 28.5213 176.1935 0374633 102.0535 262.2329 15.00263973 25396 NO-104 1 44354U 19036R 19345.84819288 .00012866 00000-0 19495-3 0 9993 2 44354 028.5276 175.9992 0378721 101.9950 262.3340 14.99870802025440 NO-103 1 44355U 19036S 19345.60658063 .00023818 00000-0 35847-3 0 9998 2 44355 28.5277 175.9977 0369851 102.0182 262.2100 15.02053580 25419 Oculus-ASR 1 44356U 19036T 19345.80542414 .00055390 00000-0 74862-3 0 9993 2 44356 28.5171 168.6988 0344908 113.8078 249.9216 15.09443970 25518 CP9 1 44360U 19036X 19345.82768403 .00033883 00000-0 45085-3 0 9996 2 44360 028.5109 170.6526 0365164 110.9332 253.0708 15.05658736025373 Move-IIb 1 44398U 19038N 19345.82305859 .00001060 00000-0 65189-4 0 9991 2 44398 97.5116 304.8185 0026905 58.8863 301.5002 15.11901910 24070 SONATE 1 44400U 19038Q 19346.42169254 .00000455 00000-0 30269-4 0 9997 2 44400 97.5138 305.4233 0026701 55.4540 304.9205 15.11767422 24168 BeeSat 9 1 44412U 19038AC 19346.40456413 .00000673 00000-0 42741-4 0 9994 2 44412 97.5132 305.4376 0024388 61.0469 299.3202 15.11981276 23859 JAISAT-1 1 44419U 19038F 19345.82327967 .00000695 00000-0 43496-4 0 9999 2 44419 97.5131 304.9880 0023244 62.6724 297.6869 15.12466323 24088 LightSail-2 1 44420U 19036AC 19346.29986406 .00003185 00000-0 69116-3 0 9993 2 44420 24.0092 214.9807 0023714 236.1601 123.6640 14.53870039 22882 Taurus 1 1 44530U 19059C 19346.43701843 .00000225 00000-0 76990-4 0 9997 2 44530 98.5813 60.6718 0014427 5.8993 354.2339 14.45293957 13183 SMOG-P 1 44832U 19084J 19343.06007526 -.00000116 00000-0 00000 0 0 9997 2 44832 97.0009 207.1982 0040316 243.1745 116.5504 15.64662868 416 /EX